Terminal Aerodrome Forecast
Issued by NWS Knoxville/Tri Cities, TN

Home | Current Version | Previous Version | Text Only | Print | Product List | Glossary On
Versions: 1 2 3 4 5 6 7 8 9 10 11 12 13 14 15 16 17 18 19 20 21 22 23 24 25 26 27 28 29 30 31 32 33
000
FTUS44 KMRX 301400 AAA
TAFCHA
TAF AMD
KCHA 301403Z 3014/0112 00000KT 2SM BR BKN002
     FM301500 32004KT 4SM BR SCT009 BKN015
     FM301600 32004KT P6SM SCT250
     FM010100 00000KT P6SM SKC
     FM010900 00000KT 1SM BR SCT005=

USA.gov is the U.S. government's official web portal to all federal, state and local government web resources and services.